Weather History for KDAN - March, 2015

Change the Weather History Date:

Wednesday, March 25, 2015

  Actual Average Record
Temperature  
Mean Temperature 53 °F 52 °F  
Max Temperature 60 °F 62 °F 84 °F (1959)
Min Temperature 46 °F 41 °F 22 °F (1956)
Degree Days  
Heating Degree Days 12 14  
Month to date heating degree days 381 435  
Since 1 July heating degree days 3475 3436  
Cooling Degree Days 0 0  
Month to date cooling degree days 0 0  
Year to date cooling degree days 0 0  
Growing Degree Days 3 (Base 50)    
Moisture  
Dew Point 43 °F    
Average Humidity 69    
Maximum Humidity 83    
Minimum Humidity 55    
Precipitation  
Precipitation T in 0.15 in 1.35 in (1984)
Month to date precipitation 1.54 3.12  
Year to date precipitation 5.33 9.55  
Snow  
Snow 0.00 in - - ()
Month to date snowfall T  
Since 1 July snowfall 9.8  
Snow Depth 0.00 in    
Sea Level Pressure  
Sea Level Pressure 30.24 in    
Wind  
Wind Speed 4 mph (NE)    
Max Wind Speed 9 mph    
Max Gust Speed 14 mph    
Visibility 10 miles    
Events      
T = Trace of Precipitation, MM = Missing Value Source: NWS Daily Summary

Daily Weather History Graph

Daily Weather History Graph

Search for Another Location

Airport or City:

Trip Planner

Search our weather history database for the weather conditions in past years. The results will help you decide how hot, cold, wet, or windy it might be!

Date:

Astronomy

Mar. 25, 2015 Rise Set
Actual Time 7:13 AM EDT 7:33 PM EDT
Civil Twilight 6:48 AM EDT 7:59 PM EDT
Nautical Twilight 6:17 AM EDT 8:29 PM EDT
Astronomical Twilight 5:47 AM EDT 9:00 PM EDT
Moon 11:05 AM EDT (3/25) 12:31 AM EDT (3/25)
Length of Visible Light 13h 11m
Length of Day
12h 19m
Waxing Crescent, 33% of the Moon is Illuminated
Mar 25
Waxing Crescent
Mar 27
First Quarter
Apr 4
Full
Apr 11
Last Quarter
Apr 18
New

Hourly Weather History & Observations

Time (EDT) Temp. Windchill Dew Point Humidity Pressure Visibility Wind Dir Wind Speed Gust Speed Precip Events Conditions
12:53 AM 52.0 °F - - N/A% 30.27 in 10.0 mi ENE 9.2 mph - N/A   Overcast
1:53 AM 50.0 °F - - N/A% 30.27 in 10.0 mi ENE 8.1 mph - N/A   Overcast
2:53 AM 48.9 °F - - N/A% 30.30 in 10.0 mi East 4.6 mph - N/A   Mostly Cloudy
3:15 AM 48.9 °F - - N/A% 30.31 in 10.0 mi ENE 5.8 mph - N/A   Mostly Cloudy
3:53 AM 48.0 °F - - N/A% 30.28 in 10.0 mi East 8.1 mph - N/A   Overcast
4:53 AM 48.0 °F - - N/A% 30.27 in 10.0 mi East 6.9 mph - N/A   Overcast
5:53 AM 46.9 °F - - N/A% 30.29 in 10.0 mi Variable 6.9 mph - N/A   Overcast
6:53 AM 46.9 °F - - N/A% 30.30 in 10.0 mi East 6.9 mph - N/A   Overcast
7:53 AM 46.0 °F 43.9 °F 33.1 °F 61% 30.31 in 10.0 mi ENE 4.6 mph - N/A   Overcast
8:53 AM 46.0 °F 43.9 °F 37.0 °F 71% 30.33 in 10.0 mi Variable 4.6 mph - N/A   Overcast
9:53 AM 46.9 °F - 37.0 °F 68% 30.32 in 10.0 mi ENE 8.1 mph - N/A   Overcast
10:53 AM 48.0 °F - 37.0 °F 66% 30.32 in 10.0 mi East 4.6 mph - N/A   Overcast
11:53 AM 50.0 °F - 37.9 °F 63% 30.32 in 10.0 mi Variable 3.5 mph - N/A   Overcast
12:53 PM 51.1 °F - 37.9 °F 61% 30.29 in 10.0 mi Calm Calm - 0.00 in   Overcast
1:53 PM 53.1 °F - 39.9 °F 61% 30.26 in 10.0 mi Variable 5.8 mph - N/A   Overcast
2:53 PM 54.0 °F - 41.0 °F 62% 30.25 in 10.0 mi Calm Calm - N/A   Overcast
3:53 PM 55.9 °F - 42.1 °F 60% 30.22 in 10.0 mi ENE 3.5 mph - N/A   Overcast
4:53 PM 60.1 °F - 44.1 °F 55% 30.19 in 10.0 mi Calm Calm - N/A   Mostly Cloudy
5:00 PM 60.1 °F - 44.1 °F 55% 30.21 in 10.0 mi NNW 4.6 mph - N/A   Mostly Cloudy
5:53 PM 60.1 °F - 45.0 °F 57% 30.18 in 10.0 mi Calm Calm - N/A   Overcast
6:53 PM 60.1 °F - 46.0 °F 60% 30.17 in 10.0 mi ENE 3.5 mph - N/A   Overcast
7:53 PM 59.0 °F - 46.0 °F 62% 30.17 in 10.0 mi NNE 4.6 mph - N/A   Overcast
8:53 PM 55.9 °F - 48.0 °F 75% 30.18 in 10.0 mi NNE 3.5 mph - N/A   Overcast
9:53 PM 57.0 °F - 46.9 °F 69% 30.18 in 10.0 mi NE 3.5 mph - N/A   Overcast
10:01 PM 57.0 °F - 46.9 °F 69% 30.19 in 10.0 mi NE 3.5 mph - N/A   Overcast
10:15 PM 57.0 °F - 46.9 °F 69% 30.19 in 10.0 mi ENE 3.5 mph - N/A   Overcast
10:53 PM 54.0 °F - 46.0 °F 75% 30.15 in 10.0 mi NE 4.6 mph - N/A   Overcast
11:41 PM 53.1 °F - 46.0 °F 77% 30.15 in 10.0 mi NNE 3.5 mph - N/A   Overcast
11:53 PM 52.0 °F - 46.0 °F 80% 30.14 in 10.0 mi NNE 3.5 mph - N/A   Mostly Cloudy